AO-07 1 07530U 74089B 21259.87390435 -.00000030 00000-0 99895-4 0 9999 2 07530 101.8647 234.3115 0011934 205.4626 267.6434 12.53650296143421 UO-11 1 14781U 84021B 21259.46303630 .00000154 00000-0 24896-4 0 9993 2 14781 97.5982 254.8449 0009472 134.9269 225.2716 14.83324627 20428 LO-19 1 20442U 90005G 21259.46754313 .00000010 00000-0 20183-4 0 9997 2 20442 98.7503 215.8006 0010647 252.4647 107.5373 14.32997097653861 HUBBLE 1 20580U 90037B 21259.49340718 .00000732 00000-0 33254-4 0 9992 2 20580 28.4693 182.6553 0002506 326.2546 197.1735 15.09736868524760 MET-2/21 1 22782U 93055A 21259.48175167 .00000041 00000-0 23287-4 0 9992 2 22782 82.5479 231.6565 0023308 39.1523 77.7167 13.83837603416115 AO-27 1 22825U 93061C 21259.33132710 -.00000002 00000-0 17289-4 0 9991 2 22825 98.9156 279.1654 0009332 126.1621 234.0425 14.30124213458973 IO-26 1 22826U 93061D 21259.83975794 .00000005 00000-0 19714-4 0 9991 2 22826 98.9098 279.5865 0009990 113.5016 246.7216 14.30464519459543 FO-29 1 24278U 96046B 21259.39903430 -.00000027 00000-0 11511-4 0 9991 2 24278 98.5585 315.2908 0349246 274.0382 82.0915 13.53105763238548 NOAA-15 1 25338U 98030A 21259.78966865 .00000038 00000-0 34409-4 0 9990 2 25338 98.6770 287.4725 0010669 21.1773 338.9846 14.26058035214268 GO-32 1 25397U 98043D 21259.41662637 -.00000001 00000-0 19315-4 0 9999 2 25397 98.7772 204.7462 0001642 137.7979 222.3326 14.23715482204439 ISS 1 25544U 98067A 21259.77787037 .00002107 00000-0 47327-4 0 9992 2 25544 51.6434 249.8460 0003202 23.5127 346.7343 15.48399660302797 NO-44 1 26931U 01043C 21259.90006905 -.00000005 00000-0 29956-4 0 9998 2 26931 67.0520 44.4287 0005409 268.1653 91.8829 14.30632374 42434 SO-50 1 27607U 02058C 21259.44409362 .00000049 00000-0 27517-4 0 9997 2 27607 64.5552 60.0907 0051937 353.9087 6.1377 14.75788140 7931 CO-55 1 27844U 03031E 21259.43531615 .00000073 00000-0 52352-4 0 9990 2 27844 98.6821 266.2716 0010008 168.8749 191.2652 14.22332315944912 CO-57 1 27848U 03031J 21259.87784112 .00000060 00000-0 47165-4 0 9996 2 27848 98.6875 267.2662 0009665 181.0228 179.0931 14.21906616944837 RS-22 1 27939U 03042A 21259.77908194 .00000276 00000-0 57890-4 0 9991 2 27939 98.1532 36.3006 0012874 357.9487 2.1665 14.67022043960917 NOAA-18 1 28654U 05018A 21259.74517587 .00000080 00000-0 67707-4 0 9991 2 28654 98.9861 324.9385 0014581 28.7518 331.4455 14.12638255841423 CO-58 1 28895U 05043F 21259.33099724 .00000207 00000-0 48534-4 0 9997 2 28895 98.0711 30.6469 0015415 285.2683 74.6816 14.63958314847306 Falconsat-3 1 30776U 07006E 21259.31048527 .00006715 00000-0 15572-3 0 9997 2 30776 35.4330 235.9113 0001914 337.7004 22.3641 15.41755360807130 CO-65 1 32785U 08021C 21259.53824287 .00000448 00000-0 53462-4 0 9994 2 32785 97.6206 234.8912 0014424 64.3717 295.8989 14.88799707725722 AAUSAT2 1 32788U 08021F 21259.47519582 .00000963 00000-0 91286-4 0 9997 2 32788 97.5117 250.3498 0010817 332.8341 27.2313 14.95754930727463 DO-64 1 32789U 08021G 21259.51463629 .00002630 00000-0 16816-3 0 9991 2 32789 97.3709 291.3657 0011634 181.1946 178.9257 15.09396402730664 CO-66 1 32791U 08021J 21259.47019390 .00000537 00000-0 58867-4 0 9998 2 32791 97.5796 240.6439 0014004 29.5262 330.6745 14.91519075726342 RS-30 1 32953U 08025A 21259.73717543 .00000021 00000-0 80971-4 0 9995 2 32953 82.5110 354.1621 0020557 136.7561 223.5139 12.43104542604327 PRISM 1 33493U 09002B 21259.45388403 .00001635 00000-0 14436-3 0 9993 2 33493 98.1977 226.4345 0014328 352.2164 7.8832 14.97851664687945 NOAA-19 1 33591U 09005A 21259.85876026 .00000063 00000-0 59591-4 0 9998 2 33591 99.1803 282.8132 0013136 233.6550 126.3409 14.12495249649822 SRMSAT 1 37841U 11058D 21259.26357588 .00000303 00000-0 21190-4 0 9994 2 37841 19.9719 112.2116 0011857 211.2766 304.4170 14.10703781512472 HRBE 1 37855U 11061F 21259.45845752 .00001941 00000-0 99273-4 0 9995 2 37855 101.7178 230.1110 0165503 159.7992 200.9873 15.08118687539893 RS-40 1 38735U 12041C 21259.57786776 -.00000008 00000-0 -12939-3 0 9993 2 38735 82.4722 76.2695 0016396 247.5532 112.3810 12.42583218414507 ZACUBE-1 1 39417U 13066B 21259.49134247 .00000347 00000-0 49446-4 0 9998 2 39417 97.6017 239.1434 0057384 221.6398 138.0440 14.81592918422556 Delfi-N3xt 1 39428U 13066N 21259.41087161 .00000685 00000-0 11468-3 0 9991 2 39428 97.7847 201.2389 0121075 73.5285 287.9185 14.68103530418319 GOMX-1 1 39430U 13066Q 21259.70489547 .00000206 00000-0 46043-4 0 9997 2 39430 97.8095 177.5290 0149895 186.9976 172.9138 14.59671313416352 LO-74 1 39440U 13066AA 21259.47954860 .00000396 00000-0 61643-4 0 9990 2 39440 97.6858 224.3775 0078459 300.9109 58.4404 14.76317257419855 AO-73 1 39444U 13066AE 21259.48680468 .00000413 00000-0 56490-4 0 9999 2 39444 97.5918 241.5186 0056617 211.2892 148.4948 14.82515960420928 SPROUT 1 39770U 14029E 21259.56140549 .00001579 00000-0 17528-3 0 9993 2 39770 97.9213 10.8007 0007550 268.9320 91.1026 14.88643464396894 DTUSAT-2 1 40030U 14033W 21259.34182066 .00000478 00000-0 56653-4 0 9995 2 40030 97.9154 186.5708 0010498 232.3737 127.6528 14.89075863392846 EO-80 1 40032U 14033Y 21259.50915297 .00000415 00000-0 50101-4 0 9998 2 40032 97.9160 186.7463 0010466 232.6013 127.4251 14.89035708392845 HODOYOSHI-1 1 40299U 14070B 21259.85126200 .00001326 00000-0 55939-4 0 9996 2 40299 97.2785 330.9361 0013701 32.1822 79.4111 15.24934435381341 FIREBIRD FU3 1 40377U 15003B 21259.42863667 .00004908 00000-0 17701-3 0 9991 2 40377 99.1109 59.8327 0115123 227.5952 131.5495 15.23109334366634 FIREBIRD FU4 1 40378U 15003C 21259.40192237 .00005390 00000-0 19360-3 0 9997 2 40378 99.1115 59.9566 0115196 227.4568 131.6895 15.23162010366635 GRIFEX 1 40379U 15003D 21259.67714270 .00003065 00000-0 12498-3 0 9996 2 40379 99.1078 48.8043 0126020 261.3973 97.2961 15.18552791366034 NO-84 1 40654U 15025D 21257.95518962 .00055464 11497-4 30760-3 0 1489 2 40654 54.9765 336.8885 0060304 308.3214 51.2393 15.77435795 21146 XW-2A 1 40903U 15049E 21259.91597545 .00005295 00000-0 10987-3 0 9998 2 40903 97.2270 314.1151 0013124 47.2053 71.4065 15.46055569336925 XW-2C 1 40906U 15049H 21259.86592803 .00001561 00000-0 82414-4 0 9994 2 40906 97.4892 261.1013 0013178 226.1242 253.4854 15.16956437331424 XW-2D 1 40907U 15049J 21259.84032529 .00001452 00000-0 76164-4 0 9991 2 40907 97.4889 260.9037 0012533 221.7012 259.3332 15.17303621331455 LILACSAT-2 1 40908U 15049K 21259.86238810 .00001024 00000-0 59016-4 0 9997 2 40908 97.5085 258.6347 0014240 241.7252 237.0013 15.14567697331066 XW-2E 1 40909U 15049L 21259.84005985 .00002317 00000-0 11096-3 0 9992 2 40909 97.4678 265.0289 0012215 204.7177 276.9648 15.19891660331810 XW-2F 1 40910U 15049M 21259.87295350 .00002461 00000-0 11933-3 0 9994 2 40910 97.4742 264.1465 0013284 205.2880 273.7722 15.19391700331609 XW-2B 1 40911U 15049N 21259.84792889 .00001488 00000-0 78152-4 0 9996 2 40911 97.4881 261.5790 0012527 222.9080 256.6297 15.17217809331346 DCBB 1 40912U 15049P 21259.84874137 .00002655 00000-0 11921-3 0 9991 2 40912 97.4460 268.5076 0014202 175.5589 307.3423 15.21975494332097 TW-1A 1 40928U 15051D 21259.90747866 .00008595 00000-0 17179-3 0 9996 2 40928 97.0720 282.6525 0007670 328.1238 153.1044 15.47005938335828 IO-86 1 40931U 15052B 21258.57404626 .00000745 00000-0 14687-4 0 9998 2 40931 6.0051 329.6786 0012599 242.2191 117.6901 14.76689256322645 ATHENOXAT-1 1 41168U 15077C 21259.52469525 .00003987 00000-0 16491-3 0 9998 2 41168 14.9901 311.2318 0011198 5.9923 31.2461 15.16114319318622 ChubuSat-2 1 41338U 16012B 21259.59919197 .00000563 00000-0 36693-4 0 9993 2 41338 31.0037 326.2911 0013684 317.0609 42.8958 15.00603091306300 ChubuSat-3 1 41339U 16012C 21259.54692917 .00000605 00000-0 39846-4 0 9997 2 41339 31.0132 323.7590 0013614 324.5672 35.4046 15.00745498306290 Horyu-4 1 41340U 16012D 21259.53341592 .00000859 00000-0 57323-4 0 9999 2 41340 31.0051 306.2715 0013748 357.5815 2.4753 15.02013327306492 e-st@r-II 1 41459U 16025D 21259.83299703 .00004509 00000-0 21764-3 0 9998 2 41459 98.1536 41.5785 0159730 114.3245 247.4722 15.08636152296194 AAUSAT4 1 41460U 16025E 21259.66921643 .00007172 00000-0 32619-3 0 9996 2 41460 98.1540 45.7556 0145739 97.4490 264.3324 15.11987722296495 LO-87 1 41557U 16033B 21259.85714666 .00003198 00000-0 11295-3 0 9999 2 41557 97.3928 353.3110 0011141 270.9583 229.5021 15.29903109295501 NuSat2 1 41558U 16033C 21259.86374813 .00003302 00000-0 10929-3 0 9997 2 41558 97.4054 357.5685 0010203 261.6181 239.2056 15.32007508295716 Lapan A3 1 41603U 16040E 21259.83518257 .00000377 00000-0 20457-4 0 9992 2 41603 97.2465 303.2556 0014577 46.6101 71.3880 15.20098667290467 Pratham 1 41783U 16059A 21259.07675590 .00000072 00000-0 23072-4 0 9999 2 41783 97.9559 306.0375 0032590 322.0411 37.8495 14.63165568265504 TY-1 1 41844U 16066D 21259.87585829 .00001947 00000-0 78214-4 0 9998 2 41844 97.3988 269.1601 0014593 168.5812 310.2699 15.26069864269841 CAS-2T 1 41847U 16066G 21259.61237693 .00000080 00000-0 23257-4 0 9990 2 41847 98.5925 319.0787 0364190 308.3805 48.5181 14.38235836254987 EO-88 1 42017U 17008BX 21259.43092355 .00003328 00000-0 12174-3 0 9994 2 42017 97.3085 325.3948 0007120 135.3429 224.8386 15.28726642255153 CAS-4B 1 42759U 17034B 21259.83382238 .00000854 00000-0 64436-4 0 9992 2 42759 43.0179 38.6512 0008345 6.1287 120.1541 15.10366325234962 CAS-4A 1 42761U 17034D 21259.88835184 .00000811 00000-0 61678-4 0 9991 2 42761 43.0180 37.3376 0008724 9.6691 131.5305 15.10454385234978 NIUSat 1 42766U 17036B 21259.38455261 .00001913 00000-0 83923-4 0 9998 2 42766 97.2425 302.1775 0014030 209.0933 150.9524 15.23058439235056 Aalto 1 1 42775U 17036L 21259.36222178 .00001603 00000-0 71057-4 0 9996 2 42775 97.2389 302.3565 0012550 207.8474 152.2093 15.22947155235030 URSA MAIOR 1 42776U 17036M 21259.34814681 .00001768 00000-0 77434-4 0 9998 2 42776 97.2406 302.8628 0012368 206.7990 153.2610 15.23239863235053 Max Valier Sat 1 42778U 17036P 21259.38680850 .00001870 00000-0 80138-4 0 9992 2 42778 97.2472 304.9917 0010937 207.4098 152.6564 15.23929139235131 Pegasus 1 42784U 17036V 21259.40331364 .00002432 00000-0 10067-3 0 9993 2 42784 97.2423 305.5367 0010405 210.1745 149.8895 15.24826912235210 NUDATSat 1 42787U 17036Y 21259.55028405 .00003992 00000-0 15331-3 0 9992 2 42787 97.2469 308.4012 0008850 204.3091 155.7753 15.26981946235234 SUCHAI 1 1 42788U 17036Z 21259.54964626 .00002789 00000-0 11210-3 0 9991 2 42788 97.2435 306.7914 0009983 205.6207 154.4539 15.25699607235373 SKCUBE 1 42789U 17036AA 21259.39880346 .00002670 00000-0 10841-3 0 9999 2 42789 97.2428 306.3117 0009892 206.8883 153.1844 15.25398087235259 VZLUSAT 1 1 42790U 17036AB 21259.41499166 .00003746 00000-0 14413-3 0 9994 2 42790 97.2462 308.2573 0009431 200.3605 159.7259 15.26949527235362 VENTA 1 1 42791U 17036AC 21259.38388509 .00002468 00000-0 10065-3 0 9998 2 42791 97.2425 306.2991 0009581 207.3913 152.6822 15.25317589235240 Robusta 1B 1 42792U 17036AD 21259.09050382 .00002768 00000-0 11140-3 0 9990 2 42792 97.2431 306.4298 0009434 207.6735 152.4003 15.25660336235242 D-SAT 1 42794U 17036AF 21259.45672284 .00000661 00000-0 62231-4 0 9991 2 42794 97.4601 274.5075 0123712 281.9650 76.7724 14.91680298230626 TechnoSat 1 42829U 17042E 21259.50443887 .00000401 00000-0 45418-4 0 9998 2 42829 97.4556 124.1446 0013523 197.3327 162.7432 14.91340980227253 QIKCOM-1 1 42983U 98067NF 21259.86657017 .00010568 00000-0 95620-4 0 9991 2 42983 51.6355 154.3130 0002179 349.8817 10.2136 15.68718066221746 AO-91 1 43017U 17073E 21259.49347030 .00001662 00000-0 13227-3 0 9995 2 43017 97.6962 159.8317 0254576 3.6569 356.6427 14.79734957206588 EcAMSat 1 43019U 98067NG 21258.97357727 .00055629 00000-0 21188-3 0 9992 2 43019 51.6373 113.7355 0001176 264.9635 95.1236 15.86986100304523 PICSAT 1 43132U 18004X 21259.46337746 .00002929 00000-0 11575-3 0 9999 2 43132 97.4033 333.1845 0007433 241.9213 118.1274 15.26270884204561 AO-92 1 43137U 18004AC 21259.44745659 .00002242 00000-0 91028-4 0 9998 2 43137 97.4004 332.5382 0007179 245.3789 114.6701 15.25616067204535 TianYi 2 1 43155U 18008A 21259.89094112 .00001572 00000-0 93126-4 0 9998 2 43155 97.3933 322.0840 0017379 17.9515 97.3511 15.12697263201896 Zhou Enlai 1 43156U 18008B 21259.85127650 .00002197 00000-0 13019-3 0 9995 2 43156 97.3983 321.8842 0014621 19.6747 108.9564 15.12325939201822 TianYi 6 1 43158U 18008D 21259.15332338 .00001806 00000-0 10947-3 0 9994 2 43158 97.3920 319.6499 0013879 21.9877 31.7639 15.11718136201642 S-Net D 1 43186U 18014G 21259.52244982 -.00000126 00000-0 -58895-5 0 9992 2 43186 97.6686 165.4395 0011741 131.2640 228.9595 14.97135872197925 S-Net B 1 43187U 18014H 21259.45556666 -.00000129 00000-0 -61619-5 0 9991 2 43187 97.6683 165.3370 0011732 131.4281 228.7951 14.97135252197913 S-Net A 1 43188U 18014J 21259.52252285 -.00000128 00000-0 -60503-5 0 9990 2 43188 97.6687 165.4516 0011726 131.3175 228.9058 14.97134094197929 S-Net C 1 43189U 18014K 21259.52301735 -.00000114 00000-0 -48415-5 0 9999 2 43189 97.6682 165.3949 0011725 131.2621 228.9613 14.97133580196473 FMN 1 1 43192U 18015A 21259.87370174 .00005827 00000-0 21039-3 0 9990 2 43192 97.5000 35.8022 0012952 280.6813 182.0855 15.28813624201551 Shaonian Xing 1 43199U 18015H 21259.86889133 .00003955 00000-0 14688-3 0 9998 2 43199 97.4790 32.6047 0014192 291.8627 169.6696 15.28074100201608 SurfSat 1 43614U 18070B 21259.81528482 .00005445 00000-0 12265-3 0 9998 2 43614 93.0351 344.1038 0014170 19.9354 340.2453 15.43197338168750 CP-7 DAVE 1 43615U 18070C 21259.20233751 .00005560 00000-0 12665-3 0 9996 2 43615 93.0353 343.7917 0014522 22.2238 337.9645 15.42856301168648 ELFIN-B 1 43616U 18070D 21259.87817530 .00008904 00000-0 17955-3 0 9995 2 43616 93.0307 344.3879 0013582 15.9191 344.2491 15.46443888168897 ELFIN-A 1 43617U 18070E 21259.48386733 .00010011 00000-0 19805-3 0 9997 2 43617 93.0354 345.1595 0012896 14.7772 345.3861 15.47001542168850 CubeBel-1 1 43666U 18083E 21259.85000302 .00002243 00000-0 10812-3 0 9998 2 43666 97.4505 287.0612 0013655 205.3797 259.6783 15.19687306159894 Changshagaoxin 1 43669U 18083H 21259.85239895 .00002223 00000-0 11116-3 0 9998 2 43669 97.4422 283.8574 0009876 198.6181 286.4048 15.18446180159756 Ten-Koh 1 43677U 18084G 21259.75629370 .00000375 00000-0 44230-4 0 9998 2 43677 97.9309 23.0860 0017418 93.7914 266.5296 14.90522850156902 PO-101 1 43678U 18084H 21259.67647638 .00000216 00000-0 27126-4 0 9996 2 43678 97.9352 25.4863 0011248 107.1721 253.0725 14.91790125157037 IRVINE 01 1 43693U 18088D 21259.37420903 .00005083 00000-0 19250-3 0 9993 2 43693 85.0340 134.5063 0018052 53.1358 307.1538 15.26486372158308 QO-100 1 43700U 18090A 21259.72005991 .00000121 00000-0 00000 0 0 9997 2 43700 0.0172 152.5964 0002276 46.2171 82.0746 1.00272747 10521 Reaktor Hello World 1 43743U 18096AA 21259.48162478 .00002585 00000-0 93499-4 0 9992 2 43743 97.3805 336.2980 0015687 317.9201 42.0833 15.29243565156044 MinXSS-2 1 43758U 18099A 21259.79595273 .00000755 00000-0 71964-4 0 9998 2 43758 97.6595 329.0680 0016938 102.7504 257.5612 14.96174643152173 AO-95 1 43770U 18099N 21259.45360133 .00000472 00000-0 47754-4 0 9996 2 43770 97.6575 327.6019 0015870 111.9980 248.2929 14.95423358152053 RANGE-B 1 43772U 18099Q 21259.46287100 .00000884 00000-0 84291-4 0 9995 2 43772 97.6665 328.7511 0015536 100.3414 259.9559 14.95753074152067 RANGE-A 1 43773U 18099R 21259.46644946 .00000779 00000-0 75753-4 0 9997 2 43773 97.6510 326.8443 0015075 100.1987 260.0935 14.95290205152042 MOVE-II 1 43780U 18099Y 21259.44340467 .00000537 00000-0 52728-4 0 9993 2 43780 97.6599 328.2368 0014706 108.5359 251.7461 14.96090285152075 SNUSat 2 1 43782U 18099AA 21259.47188414 .00000952 00000-0 90599-4 0 9999 2 43782 97.6577 327.9926 0014331 99.1508 261.1336 14.95658972152072 SnugLite 1 43784U 18099AC 21259.13788893 .00001041 00000-0 98173-4 0 9997 2 43784 97.6541 327.3694 0016604 107.0586 253.2456 14.95793335152046 ITASat 1 1 43786U 18099AE 21259.62295017 .00000554 00000-0 54730-4 0 9993 2 43786 97.6601 328.5090 0016713 104.5910 255.7166 14.95708710152118 EAGLET 1 1 43790U 18099AJ 21259.16803146 -.00000037 00000-0 18085-5 0 9996 2 43790 97.6590 328.5124 0014889 108.7672 251.5166 14.96050842151773 ESEO 1 43792U 18099AL 21259.43551041 -.00000203 00000-0 -13096-4 0 9994 2 43792 97.6554 328.2916 0014700 105.4646 254.8200 14.95785851151867 CSIM 1 43793U 18099AM 21259.47198059 .00001389 00000-0 12631-3 0 9992 2 43793 97.6589 328.8787 0014584 103.1015 257.1835 14.96755103151883 Astrocast 0.1 1 43798U 18099AS 21259.43804410 .00000079 00000-0 12062-4 0 9992 2 43798 97.6597 329.0114 0013812 89.7605 270.5199 14.96295575152123 JO-97 1 43803U 18099AX 21259.43739834 .00000161 00000-0 19374-4 0 9991 2 43803 97.6560 328.0702 0016469 104.9041 255.4005 14.95974412152094 Suomi 100 1 43804U 18099AY 21259.44480769 .00000204 00000-0 23268-4 0 9998 2 43804 97.6555 328.0362 0016494 105.3205 254.9840 14.95938468152100 Al Farabi 2 1 43805U 18099AZ 21259.49866527 .00000844 00000-0 79783-4 0 9997 2 43805 97.6570 328.3581 0016768 104.1787 256.1277 14.96191339152129 CHOMPTT 1 43855U 18104G 21259.45205204 .00002029 00000-0 81113-4 0 9991 2 43855 85.0357 233.1676 0017527 162.2706 197.9153 15.24283330152957 ISAT 1 43879U 18111D 21259.85397138 .00000358 00000-0 36292-4 0 9998 2 43879 97.6759 165.4663 0013032 149.7492 210.4459 14.96751673146726 UWE-4 1 43880U 18111E 21259.56038764 .00001201 00000-0 10926-3 0 9998 2 43880 97.6786 165.7074 0012890 151.1866 209.0071 14.96981944148711 Sparrow 1 43881U 18111F 21259.52753214 .00000228 00000-0 24767-4 0 9996 2 43881 97.6789 165.8262 0012721 150.7332 209.4605 14.97039202148710 Lume 1 1 43908U 18111AJ 21259.45144072 .00002379 00000-0 93127-4 0 9999 2 43908 97.2207 151.2135 0019371 333.7259 26.2996 15.26601593151553 FO-98 1 43933U 19003B 21259.38452535 .00015769 00000-0 55147-3 0 9992 2 43933 97.1775 297.5015 0016685 74.2357 286.0723 15.29480373147993 FO-99 1 43937U 19003F 21259.53680299 .00002731 00000-0 10748-3 0 9996 2 43937 97.1694 299.0528 0024261 52.5527 307.7914 15.26188822148153 MYSat 1 1 44045U 18092F 21259.48857304 .00006005 00000-0 15250-3 0 9992 2 44045 51.6389 341.6074 0009551 175.2014 184.9065 15.41054914145496 AstroCast 0.2 1 44083U 19018F 21259.58327201 .00002101 00000-0 92323-4 0 9992 2 44083 97.3647 318.9345 0013062 20.1055 340.0694 15.22943040136764 AISTechSat 3 1 44103U 19018AB 21259.79098708 .00002011 00000-0 84869-4 0 9991 2 44103 97.3508 319.5639 0013813 27.9525 66.3839 15.24362306136926 AISat 1 1 44104U 19018AC 21259.31466375 .00001908 00000-0 60558-4 0 9992 2 44104 97.4203 336.8182 0057024 33.3662 327.1153 15.32395627137581 Raavana-1 1 44329U 98067QE 21259.45935619 .00295463 47099-4 61081-3 0 9994 2 44329 51.6281 170.0666 0003700 193.4037 166.6874 15.98682707128596 Uguisu 1 44330U 98067QF 21259.14429898 .00244444 34689-4 59315-3 0 9990 2 44330 51.6241 173.0864 0003327 189.2527 170.8421 15.95833918128504 NepaliSat-1 1 44331U 98067QG 21259.46729803 .00275977 42185-4 59066-3 0 9993 2 44331 51.6250 169.9985 0003754 193.7218 166.3690 15.98078401128581 Prox-1 1 44339U 19036A 21259.32664419 .00001291 00000-0 25274-3 0 9992 2 44339 23.9998 121.8105 0010682 96.5982 263.5726 14.53740358118404 Oculus-ASR 1 44348U 19036K 21259.34105181 .00013132 00000-0 17015-3 0 9991 2 44348 28.5104 247.8730 0319797 172.6654 187.8764 15.14809266122696 Armadillo 1 44352U 19036P 21259.20480234 .00019514 00000-0 23052-3 0 9994 2 44352 28.5280 219.9754 0283224 215.9832 142.1387 15.24036126122914 NO-104 1 44354U 19036R 21259.27503318 .00013593 00000-0 17163-3 0 9999 2 44354 28.5270 240.1497 0314310 182.9589 176.9134 15.16440940122760 NO-103 1 44355U 19036S 21259.47497920 .00033623 -61965-5 31892-3 0 9997 2 44355 28.5265 177.2295 0239942 285.4918 71.9306 15.36016879123413 CP9 1 44360U 19036X 21259.20491253 .00225590 82180-5 92843-3 0 9997 2 44360 28.4969 85.1725 0123359 76.2849 285.1458 15.73699018124160 Move-IIb 1 44398U 19038N 21259.59264039 .00003659 00000-0 20342-3 0 9993 2 44398 97.5910 223.2542 0024578 359.3224 0.7965 15.14078591121557 SONATE 1 44400U 19038Q 21259.60423432 .00001581 00000-0 93439-4 0 9993 2 44400 97.5979 223.0594 0025008 359.9406 0.1809 15.12730400121517 BeeSat 9 1 44412U 19038AC 21259.44780829 .00002371 00000-0 13518-3 0 9991 2 44412 97.5969 223.2525 0022210 5.4283 354.7185 15.13575395121216 JAISAT-1 1 44419U 19038F 21259.45452923 .00002287 00000-0 12887-3 0 9994 2 44419 97.5973 223.8788 0021006 3.6211 356.5168 15.14060977121563 LightSail-2 1 44420U 19036AC 21259.75219654 .00010902 00000-0 21595-2 0 9997 2 44420 24.0055 92.4944 0010285 162.2313 197.8540 14.60424073116977 Taurus 1 1 44530U 19059C 21259.71180946 .00000628 00000-0 18820-3 0 9993 2 44530 98.5514 350.8379 0013006 221.7657 138.2532 14.46180603106278 Duchifat 3 1 44854U 19089C 21259.75005030 .00000824 00000-0 72014-4 0 9993 2 44854 36.9680 280.6788 0007444 164.3836 195.7140 14.99624606 96816 OPS-SAT 1 44878U 19092F 21259.56786211 .00001518 00000-0 80615-4 0 9996 2 44878 97.4778 81.7640 0012794 208.1978 151.8563 15.16778665 96645 TO-108 1 44881U 19093C 21259.71625887 .00000130 00000-0 23325-4 0 9993 2 44881 97.9190 337.5314 0015259 2.0410 358.0865 14.81480588 94248 FloripaSat 1 1 44885U 19093G 21259.75115455 .00000495 00000-0 68440-4 0 9997 2 44885 97.9211 338.2897 0014858 9.5454 350.6030 14.82377814 94299 RS-44 1 44909U 19096E 21259.47456507 .00000028 00000-0 73603-4 0 9991 2 44909 82.5209 52.3182 0216559 240.1634 117.7785 12.79710978 80468 SwampSat-2 1 45115U 19071E 21259.75881224 .00142825 00000-0 11916-2 0 9992 2 45115 51.6291 276.8038 0006753 8.4830 351.6279 15.69071160 91694 HO-107 1 45119U 19071J 21259.43115099 .00004520 00000-0 13547-3 0 9993 2 45119 51.6420 315.5406 0010479 260.1799 99.8001 15.36501857 91153 Phoenix 1 45258U 98067RB 21259.47173324 .00012462 00000-0 16494-3 0 9996 2 45258 51.6369 232.8127 0003922 225.8818 134.1852 15.58717530 89396 AztechSat-1 1 45261U 98067RE 21259.25710621 .00050635 00000-0 36410-3 0 9997 2 45261 51.6319 215.5417 0001601 231.8784 128.2070 15.73090333 89631 QARMAN 1 45263U 98067RG 21259.52215840 .00032280 00000-0 30689-3 0 9990 2 45263 51.6353 222.6351 0002695 241.5880 118.4844 15.66544964 89597 Quetzal 1 1 45598U 98067RL 21259.31483423 .00029297 00000-0 31112-3 0 9998 2 45598 51.6369 229.5422 0002085 39.1959 320.9187 15.63808993 78759 BY70-2 1 45857U 20042B 21259.75364635 .00001557 00000-0 22665-3 0 9997 2 45857 97.9792 334.5497 0009437 279.2533 80.7597 14.77279591 65024 UPMSat 2 1 46276U 20061E 21259.60430564 .00000876 00000-0 48198-4 0 9996 2 46276 97.4256 331.5271 0002845 70.7933 289.3608 15.16619963 57353 AmicalSat 1 46287U 20061R 21259.19322276 .00001165 00000-0 74197-4 0 9992 2 46287 97.4808 330.4511 0003934 126.2612 233.8982 15.10668890 57046 SALSAT 1 46495U 20068K 21259.57207368 .00001599 00000-0 12131-3 0 9996 2 46495 97.6952 196.5458 0017623 121.6464 238.6482 15.03550998 53027 BY70-3 1 46839U 20079N 21259.90618586 .00004935 00000-0 15056-3 0 9991 2 46839 97.2333 331.9554 0005898 226.6232 249.8091 15.34374255 48220 SPOC 1 46921U 98067RR 21259.24942482 .00012766 00000-0 18418-3 0 9993 2 46921 51.6398 242.6425 0003039 64.5486 295.5820 15.56362454 48991 Bobcat-1 1 46922U 98067RS 21259.33042568 .00020341 00000-0 26080-3 0 9992 2 46922 51.6399 239.4631 0003088 70.3413 289.7913 15.59131285 49005 Neutron-1 1 46923U 98067RT 21259.46506994 .00011527 00000-0 16776-3 0 9992 2 46923 51.6398 241.8295 0003015 74.5459 285.5866 15.56237928 49058 CAPE 3 1 47309U 21002A 21259.49724219 .00001777 00000-0 89397-4 0 9997 2 47309 60.6835 311.4900 0045830 96.2610 264.3699 15.21128053 36731 AO-109 1 47311U 21002C 21259.68412546 .00001885 00000-0 92151-4 0 9990 2 47311 60.6861 309.5972 0042040 94.0046 266.5848 15.21989941 36763 MiTEE 1 1 47314U 21002F 21259.52911116 .00002663 00000-0 11901-3 0 9991 2 47314 60.6858 308.2124 0042504 86.6987 273.8961 15.23718018 36789 ExoCube 2 1 47319U 21002L 21259.47989414 .00001901 00000-0 93701-4 0 9999 2 47319 60.6850 310.8390 0043421 95.6160 264.9880 15.21617732 36681 UVSQ-SAT 1 47438U 21006AB 21259.43578817 .00001450 00000-0 84790-4 0 9999 2 47438 97.4790 319.0019 0013762 138.9128 221.3142 15.13360746 35816 YUSAT 1 1 47439U 21006AC 21259.43752599 .00001700 00000-0 98710-4 0 9996 2 47439 97.4794 319.0065 0013642 139.1892 221.0364 15.13388245 35817 SOMP 2b 1 47445U 21006AJ 21259.12940394 .00001216 00000-0 72029-4 0 9998 2 47445 97.4763 318.5586 0013311 143.2910 216.9236 15.13188696 35765 IDEASSat 1 47458U 21006AX 21259.41503599 .00001275 00000-0 75696-4 0 9994 2 47458 97.4853 319.0739 0012456 140.1916 220.0231 15.13052216 35800 RSP-01 1 47925U 98067SB 21259.51331854 .00013016 00000-0 20693-3 0 9990 2 47925 51.6405 247.3863 0002834 36.7972 323.3212 15.53667016 28921 TAUSAT-1 1 47926U 98067SC 21259.37649646 .00018727 00000-0 28384-3 0 9995 2 47926 51.6393 247.2176 0003906 30.1740 329.9475 15.54664402 28904 Tsuru 1 47927U 98067SD 21259.66135489 .00011371 00000-0 18407-3 0 9996 2 47927 51.6407 246.8745 0002815 35.4507 324.6670 15.53311464 28944 STARS-EC 1 47928U 98067SE 21259.69107540 .00016815 00000-0 25860-3 0 9996 2 47928 51.6399 246.3145 0006449 84.9389 275.2338 15.54337969 28938 Maya-2 1 47929U 98067SF 21259.33608340 .00012056 00000-0 19457-3 0 9990 2 47929 51.6406 248.4514 0002883 30.9078 329.2082 15.53330491 28854 OPUSAT-II 1 47930U 98067SG 21259.52041597 .00018470 00000-0 27775-3 0 9996 2 47930 51.6400 246.6869 0002962 32.9555 327.1620 15.54894477 28937 GuaraniSat-1 1 47931U 98067SH 21259.33436640 .00011918 00000-0 19230-3 0 9990 2 47931 51.6402 248.4429 0002842 30.2586 329.8568 15.53347956 28893 CubeSX-Sirius-HSE 1 47951U 21022V 21259.89726667 .00000512 00000-0 39377-4 0 9994 2 47951 97.5469 160.1826 0022846 4.0563 58.2183 15.05809089 26811 CubeSX-HSE 1 47952U 21022W 21259.89320855 .00000675 00000-0 50532-4 0 9990 2 47952 97.5462 160.1844 0022708 3.3121 62.0421 15.05849043 26816 KSU-Cubesat 1 47954U 21022Y 21259.27369236 .00001598 00000-0 11349-3 0 9997 2 47954 97.5488 159.6081 0021819 5.6364 354.5104 15.05945183 26446 GRBAlpha 1 47959U 21022AD 21259.75451875 .00000678 00000-0 50754-4 0 9998 2 47959 97.5481 160.0614 0022447 4.4398 28.2792 15.05850005 25618 Orbicraft-Zorkiy 1 47960U 21022AE 21259.88419815 .00001408 00000-0 10056-3 0 9994 2 47960 97.5486 160.2335 0022000 3.3577 55.0277 15.05927727 26320 STECCO 1 47962U 21022AG 21259.83392515 .00001240 00000-0 86652-4 0 9998 2 47962 97.5448 160.3831 0017539 1.7481 86.8081 15.07028282 25637 DO-111 1 47963U 21022AH 21259.16722469 .00002496 00000-0 16689-3 0 9996 2 47963 97.5482 159.8781 0019791 0.6504 359.4747 15.07722351 25567 MO-110 1 47964U 21022AJ 21259.45453754 .00001641 00000-0 11237-3 0 9992 2 47964 97.5479 160.0997 0019867 359.5667 0.5540 15.07308805 25588 FEES 1 48082U 21022AL 21259.30812730 .00001595 00000-0 11067-3 0 9990 2 48082 97.5487 159.8611 0016122 358.9793 1.1398 15.06921664 25268 RamSat 1 48850U 98067SL 21259.55729080 .00008090 00000-0 14447-3 0 9990 2 48850 51.6405 249.9017 0004880 108.7378 251.4141 15.50993817 14645 MO-112 1 48868U 98067SP 21259.66993932 .00016391 00000-0 27375-3 0 9997 2 48868 51.6402 249.1560 0003782 97.9555 262.1864 15.52073538 13441 TUBIN 1 48900U 21059X 21259.88700463 .00001353 00000-0 81897-4 0 9992 2 48900 97.5201 27.4404 0009746 334.2839 124.5731 15.12284673 125516 /EX
